Погода Красный Холм

Поиск расширенной информации на нашем сайте:

Полезная информация:

Новости сайта



02.01.2020
Опубликован Долгосрочный прогноз погоды по городам России и ближнего зарубежья на январь 2020 года.
Карты: Прогноз на январь и февраль 2020 года, Сравнение прогнозируемой аномалии приземной температуры воздуха на январь 2020 года по разным моделям.




Погода Красный Холм - сегодня

Время (UTC), дата Ветер
(°,м/с) 
Видим.   Явления Облачность Т
(°С)
Тd
(°С)
f(%) Тe
(°С)
Pmin
(гПа)
dP
(гПа)
Po
(мм)
O2
(г/м3)
Тmin Tmax R s Состояние
почвы
15 29.11.20 100 (В) 4000 м  дымка  10/10 300 м 
[St]
-1.2 -1.7 96 -4  1031.6  -0.3  758  307      0.0     
18 29.11.20 100 (В) 4000 м  дымка  10/10 300 м 
[St]
-0.2 -0.6 97 -3  1030.7  -0.8  757  305    -0.2  0.0     
21 29.11.20 110 (В) 20000 м  {ливн. осадки}  9/9 600 м 
[Sc]
+0.4 -0.4 94 -2  1030.4  -0.2  757  305           
00 30.11.20 120 (ЮВ) 20000 м  {ливн. осадки}  9/9 600 м 
[Sc]
+0.6 -0.1 95 -2  1029.9  -0.5  757  304           
03 30.11.20 130 (ЮВ) 20000 м    9/9 600 м 
[Sc]
+1.1 +0.6 96 1029.1  -0.7  756  303  -1.2    0.4     
06 30.11.20 130 (ЮВ) 20000 м    9/9 600 м 
[Sc]
+1 -0.1 92 -1  1028.9  -0.2  756  303  -1.2    0.4  равномерный
мокрый или
старый снег
100% 
09 30.11.20 150 (ЮВ) 20000 м  {ливн. осадки}  9/9 600 м 
[Sc]
+0.6 -1 89 -2  1028.3  -0.6  755  304           
12 30.11.20 150 (ЮВ) 20000 м  {ливн. осадки}  9/9 600 м 
[Sc]
+0.4 -1.3 88 -1  1027.8  -0.6  755  304           
15 30.11.20 150 (ЮВ) 4000 м  слаб. ливневой снег  10/10 600 м кучево-дожд. 
[Cb cap]
+0 -1.1 92 -2  1027.1  -0.7  754  304      0.0     
18 30.11.20 150 (ЮВ) 4000 м  слаб. ливневой снег  10/10 300 м кучево-дожд. 
[Cb cap]
-0.1 -0.6 96 -2  1027.2  0.1  755  304    +0.9     
21 30.11.20 170 (Ю) 4000 м  слаб. ливневой снег  10/10 300 м кучево-дожд. 
[Cb cap]
-0.1 -0.6 96 -1  1027.2  755  304           
00 01.12.20 170 (Ю) 4000 м  слаб. ливневой снег  10/10 300 м кучево-дожд. 
[Cb cap]
-0.3 -0.8 96 -1  1027.3  0.1  755  304           
03 01.12.20 260 (З) 4000 м  слаб. снег{ливн. осадки}  10/10 300 м 
[Ns]
-0.6 -1.1 96 1027.7  0.4  755  305  -0.6       
06 01.12.20 200 (Ю) 4000 м  слаб. снег{ливн. осадки}  10/10 300 м 
[Ns]
-1.6 -2.1 96 -1  1028.8  756  307  -1.6    11  равномерный
сухой снег
100% 
09 01.12.20 190 (Ю) 20000 м  {снег}  9/0 средняя 
[Ac trans]
-1 -2.3 91 1030.1  1.3  757  306           
12 01.12.20 тихо ()   20000 м  {снег}  9/0 средняя 
[Ac trans]
-0.9 -2.2 91 -1  1030.7  0.6  757  306           
15 01.12.20 тихо ()   20000 м    3/0 верхняя 
[Ci sp]
-5.5 -6.2 95 -6  1032.5  1.4  758  312         
21 01.12.20 тихо ()   4000 м  дымка  9/0 верхняя 
[Cs]
-4.9 -5.6 95 -5  1034.7  1.1  760  312           
00 02.12.20 тихо ()   4000 м  дымка  9/0 верхняя 
[Cs]
-5.6 -6.3 95 -6  1035.5  0.7  760  313           
03 02.12.20 170 (Ю) 4000 м  дымка  9/0 верхняя 
[Cs]
-6.9 -7.7 94 -7  1036  0.4  761  315  -6.9         
06 02.12.20 тихо ()   4000 м  дымка{туман} [диам. изморози 3 мм]  9/0 верхняя 
[Cs]
-8.1 -9 93 -8  1036.8  0.7  761  317  -8.1      12  равномерный
сухой снег
100% 
09 02.12.20 180 (Ю) 20000 м  [диам. изморози 3 мм]  9/0 средняя 
[Ac trans]
-6.3 -7.1 94 -6  1037  0.3  761  315           
12 02.12.20 тихо ()   20000 м    9/0 средняя 
[Ac trans]
-5.5 -6.2 95 -6  1036.7  -0.2  761  314           
15 02.12.20 тихо ()   20000 м    9/9 600 м 
[Sc]
-5.5 -6.2 95 -6  1036.4  -0.3  761  314           
18 02.12.20 тихо ()   4000 м  дымка [диам. изморози 3 мм]  10/10 300 м 
[St]
-4.8 -5.5 95 -5  1036  -0.3  761  313    -4.8       
Время (UTC), дата Ветер
(°,м/с) 
Видим.   Явления Облачность Т
(°С)
Тd
(°С)
f(%) Тe
(°С)
Pmin
(гПа)
dP
(гПа)
Po
(мм)
O2
(г/м3)
Тmin Tmax R s Состояние
почвы

Для получения пояснительной информации подведите курсор к названию столбца.

ПОГОДА Красный Холм - архив

Всё, что Вы хотите узнать о погоде Красный Холм - удобно и подробно!

Выберите нужную дату (начиная с 1 января 2019* года) и нажмите кнопку "Найти".
Будут отображены архивные сводки погоды по пункту Красный Холм, начиная с указанной даты.


Отображать данные в формате CSV (для использования в таблицах Excel)


Внимание! Наш архив погоды предназначен исключительно для личного некоммерческого использования в познавательных целях. Если Вам необходимы официальные справки о состоянии погоды (для производственных, юридических, коммерческих и т.п. целей), обращайтесь в органы Росгидромета.

*Примечание: данная дата относится к архиву по метеостанциям СССР (Россия, СНГ, Балтия).
Архив по метеостанциям Зарубежной Европы и Азии (кроме Китая) хранится 10 дней, по другим регионам земного шара (Китай, Африка, Америка, Австралия, Океания) - 1 день.

Красный Холм - район местоположения метеостанции


Название, широта, долгота, высота метеостанции:
Красный Холм 58.1°ш. 37.1°д. 137 м над ур. моря [Российская Федерация]

Дополнительная информация

В oтличие oт бoльшинства пoгoдных сайтoв мы публикуем пoдрoбную метеoинфoрмацию в детальнoм прoфессиoнальнoм фoрмате.

Характеристики температуры и влажнoсти вoздуха измеряются на высoте 2 м в тени вдали oт зданий и деревьев.
Скoрoсть ветра измеряется на высoте 10 м (на урoвне рoста челoвека скoрoсть ветра ниже в 1.5-2 раза). Если метеoстанция нахoдится в гoрoде или в лесу, тo скoрoсть ветра занижена на 2-4 м/с пo сравнению с oткрытым местoм. Скoрoсть ветра над акватoриями крупных рек и oзёр, а также на вершинах хoлмoв на 2-5 м/с выше, чем в oбычных услoвиях.
Атмoсфернoе давление в разных тoчках местнoсти мoжет значительнo oтличаться oт давления на метеoстанции, в зависимoсти oт услoвий рельефа (при пoдъёме на 10 м давление пoнижается примернo на 1 мм рт.ст.).